Flag for Jordan Weather past 2 weeks in Amman, Jordan

Now
75 °F

Clear.


Feels Like: 77 °F
Forecast: 64 / 82 °F
Wind: 15 mph from North

Location: Amman Airport

Current Time: Sep 1, 2014 at 10:26:40 PM

Latest Report: Sep 1, 2014 at 9:00 PM


Visibility: 4 mi

Pressure: 29.86 "Hg

Humidity: 65%

Dew point: 63 °F

Location of AmmanLocation

Historic Weather in Amman — Graph

°F

Amman temperature yesterday

Maximum temperature yesterday: 95 °F (at 2:00 PM)
Minimum temperature yesterday: 72 °F (at 7:00 AM)
Average temperature yesterday: 82 °F

Past Weeks' High & Low Weather Summary

 TemperatureHumidityPressure
High95 °F (Aug 21, 3:00 PM)89% (Sep 1, 2:00 AM)30.07 "Hg (Sep 1, 2:00 AM)
Low66 °F (Aug 22, 5:00 AM)10% (Aug 21, 1:00 PM)29.74 "Hg (Aug 17, 9:00 PM)
Average81 °F43%29.89 "Hg
* Reported Aug 17 9:00 PM — Sep 1 9:00 PM, Amman, Weather by CustomWeather, © 2014

Note: Actual official high and low records may vary slightly from our data, if they occured in-between our weather recording intervals... More about our weather records

Advertising

Amman weather history for previous 24 hours

 ConditionsComfort  
Time TempWeatherWind HumidityBarometerVisibility
9:00 PM
Sep 1
75 °FClear.15 mph65%29.86 "Hg4 mi
8:00 PM75 °FHaze.9 mph61%29.86 "Hg3 mi
7:00 PM77 °FScattered clouds.12 mph57%29.86 "Hg3 mi
6:00 PM82 °FScattered clouds.16 mph51%29.83 "Hg3 mi
5:00 PM84 °FHaze.14 mph43%29.86 "Hg2 mi
4:00 PM84 °FHaze.14 mph43%29.86 "Hg2 mi
3:00 PM86 °FHaze.12 mph40%29.83 "Hg3 mi
2:00 PM86 °FHaze.10 mph38%29.86 "Hg3 mi
1:00 PM82 °FHaze.14 mph42%29.86 "Hg3 mi
11:00 AM81 °FHaze.16 mph51%29.86 "Hg3 mi
10:00 AM79 °FHaze.6 mph58%29.86 "Hg3 mi
9:00 AM75 °FHaze.12 mph74%29.86 "Hg3 mi
8:00 AM73 °FHaze.7 mph74%29.86 "Hg1 mi
7:00 AM72 °FPassing clouds.9 mph83%29.86 "Hg2 mi
6:00 AM72 °FHaze.8 mph83%29.86 "Hg3 mi
5:00 AM72 °FHaze.8 mph83%29.86 "Hg3 mi
4:00 AM73 °FPassing clouds.9 mph78%29.86 "Hg3 mi
3:00 AM75 °FPassing clouds.10 mph83%29.86 "Hg2 mi
2:00 AM73 °FFog.9 mph89%29.86 "Hg2 mi
1:00 AM75 °FHaze.7 mph83%29.86 "Hg2 mi
12:00 AM79 °FHaze.12 mph70%29.86 "Hg3 mi
11:00 PM
Aug 31
79 °FHaze.8 mph70%29.86 "Hg3 mi
10:00 PM81 °FHaze.12 mph66%29.86 "Hg3 mi
Weather by CustomWeather, © 2014

See weather overviewHow to use our weather pages